Regional Weather Roundup
Issued by NWS Memphis, TN

Home | Current Version | Previous Version | Text Only | Print | Product List | Glossary On
Versions: 1 2 3 4 5 6 7 8 9 10 11 12 13 14 15 16 17 18 19 20 21 22 23 24 25 26 27 28 29 30 31 32 33 34 35 36 37 38 39 40 41 42 43 44 45 46 47 48 49 50
000
ASUS44 KMEG 071610
RWRMEG
MEMPHIS CWA HOURLY WEATHER ROUNDUP
NATIONAL WEATHER SERVICE MEMPHIS TN
1000 AM CST SUN FEB 07 2016

...WEST TENNESSEE...

CITY           SKY/WX    TMP DP  RH WIND       PRES   REMARKS
MEMPHIS INTL   SUNNY     51  26  37 S8G22     30.20S
NWS MEMPHIS      N/A     49 N/A N/A MISG        N/A
JACKSON        SUNNY     49  25  39 SW10      30.19F
LEXINGTON      SUNNY     43  27  52 S7        30.18F
DYERSBURG      SUNNY     52  27  37 SW7       30.18F
UNION CITY     SUNNY     46  28  49 SW9       30.15F
PARIS          SUNNY     45  25  45 SW12      30.16F


...EASTERN ARKANSAS...

CITY           SKY/WX    TMP DP  RH WIND       PRES   REMARKS
JONESBORO      SUNNY     45  30  55 SW12      30.17F
WEST MEMPHIS   SUNNY     49  32  52 SW5       30.20R
BATESVILLE     SUNNY     52  30  43 SW12      30.16S
NEWPORT        SUNNY     48  32  54 S12       30.18F
WALNUT RIDGE   SUNNY     46  28  49 SW13      30.14F
BLYTHEVILLE    SUNNY     51  30  44 SW17      30.18F
SEARCY         SUNNY     46  28  49 SW7       30.21S
STUTTGART      SUNNY     50  34  53 SW10      30.23R
PINE BLUFF     SUNNY     49  32  52 SW8       30.24R
MONTICELLO     SUNNY     51  33  50 W8        30.24F


...NORTH MISSISSIPPI...

CITY           SKY/WX    TMP DP  RH WIND       PRES   REMARKS
TUPELO         SUNNY     49  24  37 S7        30.24F
OLIVE BRANCH   MOSUNNY   46  30  53 SW9       30.20S
TUNICA         SUNNY     46  32  57 S7        30.23R
CORINTH        SUNNY     50  25  37 SW8G14    30.21F
GREENWOOD      SUNNY     50  27  40 S9        30.26F
COLUMBUS       SUNNY     47  30  51 CALM      30.26F
STARKVILLE     FAIR      50  23  34 SW5       30.27F
GOLDEN TRIANGL SUNNY     46  27  46 CALM      30.28S


...SOUTHEAST MISSOURI...

CITY           SKY/WX    TMP DP  RH WIND       PRES   REMARKS
WEST PLAINS    CLOUDY    47  27  45 SW14G24   30.08F
POPLAR BLUFF   SUNNY     45  29  53 SW12      30.11F
CAPE GIRARDEAU SUNNY     47  28  47 SW14      30.11F


...NORTHWEST ALABAMA...

CITY           SKY/WX    TMP DP  RH WIND       PRES   REMARKS
MUSCLE SHOALS  SUNNY     45  27  49 W3        30.25F


...MIDDLE TENNESSEE...

CITY           SKY/WX    TMP DP  RH WIND       PRES   REMARKS
NASHVILLE      PTSUNNY   47  25  42 S5        30.19F
CLARKSVILLE    SUNNY     46  25  43 SW12      30.16F
COLUMBIA       SUNNY     48  30  49 SW3       30.18F


...WESTERN KENTUCKY...

CITY           SKY/WX    TMP DP  RH WIND       PRES   REMARKS
PADUCAH        SUNNY     48  25  40 SW13      30.12F
FORT CAMPBELL  SUNNY     48  25  40 SW13      30.15F


...CENTRAL ARKANSAS...

CITY           SKY/WX    TMP DP  RH WIND       PRES   REMARKS
LITTLE ROCK    MOSUNNY   49  30  48 SW8       30.22S


SKY/WX REPORTED AS FAIR MEANS FEW OR NO CLOUDS BELOW
12 THOUSAND FEET.




USA.gov is the U.S. government's official web portal to all federal, state and local government web resources and services.